| time (UTC) | temp C | wind direction | speed KPH | gust KPH | rain 1hr cm | rain 24hr cm | rain mn cm | humidity % | barometer mb |
| 20260505040517 | 3 | 0.0 | 3.2 | 0.46 | 0.97 | 0.97 | 95 | 1015.4 | |
| 20260505040017 | 3 | 0.0 | 4.8 | 0.46 | 0.94 | 0.94 | 94 | 1015.6 | |
| 20260505035517 | 3 | 0.0 | 0.0 | 0.46 | 0.91 | 0.91 | 94 | 1014.6 | |
| 20260505035017 | 3 | 0.0 | 0.0 | 0.41 | 0.86 | 0.86 | 95 | 1014.6 | |
| 20260505034519 | 3 | 0.0 | 0.0 | 0.41 | 0.84 | 0.84 | 95 | 1015.1 | |
| 20260505034017 | 3 | 0.0 | 0.0 | 0.36 | 0.79 | 0.79 | 94 | 1015.2 | |
| 20260505033517 | 3 | 0.0 | 0.0 | 0.36 | 0.76 | 0.76 | 94 | 1015.1 | |
| 20260505033017 | 3 | 0.0 | 0.0 | 0.30 | 0.71 | 0.71 | 94 | 1015.2 | |
| 20260505032517 | 3 | 0.0 | 0.0 | 0.28 | 0.69 | 0.69 | 94 | 1014.7 | |
| 20260505032017 | 4 | 0.0 | 0.0 | 0.23 | 0.64 | 0.64 | 94 | 1015.2 | |
| 20260505031517 | 4 | 0.0 | 0.0 | 0.18 | 0.58 | 0.58 | 94 | 1015.2 | |
| 20260505031017 | 4 | 0.0 | 0.0 | 0.15 | 0.56 | 0.56 | 93 | 1014.8 | |
| 20260505030517 | 4 | 0.0 | 0.0 | 0.10 | 0.51 | 0.51 | 93 | 1014.6 | |
| 20260505030017 | 4 | 0.0 | 0.0 | 0.08 | 0.48 | 0.48 | 94 | 1014.5 | |
| 20260505025518 | 4 | 0.0 | 1.6 | 0.05 | 0.46 | 0.46 | 94 | 1014.3 | |
| 20260505025017 | 4 | 0.0 | 0.0 | 0.05 | 0.46 | 0.46 | 94 | 1014.3 | |
| 20260505024517 | 4 | 0.0 | 1.6 | 0.03 | 0.43 | 0.43 | 93 | 1014.2 | |
| 20260505024017 | 4 | 0.0 | 0.0 | 0.03 | 0.43 | 0.43 | 93 | 1014.2 | |
| 20260505023517 | 4 | 0.0 | 0.0 | 0.00 | 0.41 | 0.41 | 93 | 1014.0 | |
| 20260505023017 | 4 | 0.0 | 0.0 | 0.00 | 0.41 | 0.41 | 93 | 1013.9 | |
| 20260505022517 | 4 | 0.0 | 0.0 | 0.00 | 0.41 | 0.41 | 93 | 1012.7 | |
| 20260505022017 | 4 | 0.0 | 0.0 | 0.00 | 0.41 | 0.41 | 93 | 1012.5 | |
| 20260505021517 | 4 | 0.0 | 0.0 | 0.03 | 0.41 | 0.41 | 92 | 1012.2 | |
| 20260505021017 | 4 | 0.0 | 0.0 | 0.03 | 0.41 | 0.41 | 92 | 1012.0 | |
| 20260505020517 | 4 | 0.0 | 1.6 | 0.03 | 0.41 | 0.41 | 92 | 1011.8 | |
| 20260505020017 | 4 | 0.0 | 0.0 | 0.03 | 0.41 | 0.41 | 92 | 1011.7 | |
| 20260505015517 | 4 | 0.0 | 1.6 | 0.03 | 0.41 | 0.41 | 92 | 1011.9 | |
| 20260505015017 | 4 | 0.0 | 1.6 | 0.03 | 0.41 | 0.41 | 92 | 1011.9 | |
| 20260505014517 | 5 | 0.0 | 1.6 | 0.03 | 0.41 | 0.41 | 92 | 1011.7 | |
| 20260505014017 | 5 | 0.0 | 0.0 | 0.03 | 0.41 | 0.41 | 92 | 1011.8 | |
| 20260505013517 | 5 | 0.0 | 0.0 | 0.03 | 0.41 | 0.41 | 92 | 1011.5 | |
| 20260505013017 | 5 | 0.0 | 1.6 | 0.03 | 0.41 | 0.41 | 92 | 1011.4 | |
| 20260505012517 | 5 | 0.0 | 0.0 | 0.03 | 0.41 | 0.41 | 92 | 1011.5 | |
| 20260505012017 | 5 | 0.0 | 0.0 | 0.03 | 0.41 | 0.41 | 92 | 1011.8 | |
| 20260505011517 | 5 | 0.0 | 0.0 | 0.00 | 0.38 | 0.38 | 91 | 1011.9 | |
| 20260505011017 | 5 | 0.0 | 0.0 | 0.00 | 0.38 | 0.38 | 91 | 1011.9 | |
| 20260505010517 | 5 | 0.0 | 0.0 | 0.03 | 0.38 | 0.38 | 90 | 1011.8 | |
| 20260505010017 | 5 | 0.0 | 0.0 | 0.03 | 0.38 | 0.38 | 90 | 1011.7 | |
| 20260505005517 | 5 | 0.0 | 0.0 | 0.08 | 0.38 | 0.38 | 90 | 1010.4 | |
| 20260505005017 | 5 | 0.0 | 0.0 | 0.10 | 0.38 | 0.38 | 90 | 1010.4 | |
| 20260505004517 | 5 | 0.0 | 0.0 | 0.13 | 0.38 | 0.38 | 89 | 1010.4 | |
| 20260505004017 | 5 | 0.0 | 3.2 | 0.13 | 0.38 | 0.38 | 89 | 1010.6 | |
| 20260505003516 | 5 | 0.0 | 1.6 | 0.13 | 0.38 | 0.38 | 91 | 1010.6 | |
| 20260505003017 | 5 | 0.0 | 0.0 | 0.15 | 0.38 | 0.38 | 91 | 1010.5 | |
| 20260505002517 | 5 | 0.0 | 1.6 | 0.18 | 0.38 | 0.38 | 91 | 1011.3 | |
| 20260505002017 | 5 | 0.0 | 3.2 | 0.20 | 0.38 | 0.38 | 91 | 1011.2 | |
| 20260505001516 | 4 | 0.0 | 1.6 | 0.20 | 0.38 | 0.38 | 91 | 1011.6 | |
| 20260505001017 | 5 | 0.0 | 1.6 | 0.20 | 0.38 | 0.38 | 90 | 1011.7 | |
| 20260505000516 | 5 | 0.0 | 1.6 | 0.20 | 0.36 | 0.36 | 89 | 1012.0 | |
| 20260505000017 | 5 | 0.0 | 0.0 | 0.20 | 0.36 | 0.36 | 89 | 1012.0 | |
| 20260504235517 | 5 | 0.0 | 1.6 | 0.23 | 0.30 | 0.30 | 88 | 1011.9 | |
| 20260504235016 | 5 | 0.0 | 1.6 | 0.20 | 0.28 | 0.28 | 89 | 1012.0 | |
| 20260504234517 | 5 | 0.0 | 1.6 | 0.18 | 0.25 | 0.25 | 89 | 1012.3 | |
| 20260504234016 | 5 | 0.0 | 0.0 | 0.18 | 0.25 | 0.25 | 89 | 1012.1 | |
| 20260504233516 | 5 | 0.0 | 0.0 | 0.20 | 0.25 | 0.25 | 89 | 1011.8 | |
| 20260504233017 | 5 | 0.0 | 0.0 | 0.20 | 0.23 | 0.23 | 89 | 1011.8 | |
| 20260504232517 | 5 | 0.0 | 1.6 | 0.18 | 0.20 | 0.20 | 88 | 1011.6 | |
| 20260504232016 | 5 | 0.0 | 1.6 | 0.15 | 0.18 | 0.18 | 87 | 1011.4 | |
| 20260504231517 | 5 | 0.0 | 0.0 | 0.18 | 0.18 | 0.18 | 85 | 1011.1 | |
| 20260504231016 | 6 | 0.0 | 0.0 | 0.18 | 0.18 | 0.18 | 83 | 1011.2 | |
| 20260504230516 | 6 | 0.0 | 1.6 | 0.15 | 0.15 | 0.15 | 80 | 1011.0 | |
| 20260504230017 | 6 | 0.0 | 0.0 | 0.15 | 0.15 | 0.15 | 75 | 1010.9 | |
| 20260504225517 | 6 | 0.0 | 1.6 | 0.08 | 0.08 | 0.08 | 72 | 1010.8 | |
| 20260504225017 | 6 | 0.0 | 4.8 | 0.08 | 0.08 | 0.08 | 69 | 1010.7 | |
| 20260504224516 | 7 | 23 | 1.6 | 4.8 | 0.08 | 0.08 | 0.08 | 66 | 1011.0 |
| 20260504224017 | 7 | 135 | 3.2 | 12.9 | 0.08 | 0.08 | 0.08 | 61 | 1010.9 |
| 20260504223518 | 8 | 135 | 3.2 | 20.9 | 0.05 | 0.05 | 0.05 | 57 | 1011.4 |
| 20260504223017 | 8 | 0.0 | 3.2 | 0.03 | 0.03 | 0.03 | 64 | 1011.3 | |
| 20260504222517 | 10 | 113 | 1.6 | 6.4 | 0.03 | 0.03 | 0.03 | 57 | 1011.6 |
| 20260504222018 | 10 | 23 | 3.2 | 16.1 | 0.03 | 0.03 | 0.03 | 48 | 1012.1 |
| 20260504221516 | 11 | 135 | 8.0 | 16.1 | 0.00 | 0.00 | 0.00 | 41 | 1012.3 |
| 20260504221016 | 12 | 113 | 1.6 | 8.0 | 0.00 | 0.00 | 0.00 | 41 | 1012.3 |
| 20260504220516 | 12 | 135 | 3.2 | 6.4 | 0.00 | 0.00 | 0.00 | 40 | 1012.1 |
| 20260504220016 | 12 | 113 | 3.2 | 9.7 | 0.00 | 0.00 | 0.00 | 40 | 1012.0 |
| 20260504215516 | 12 | 90 | 4.8 | 12.9 | 0.00 | 0.00 | 0.00 | 39 | 1012.6 |
| 20260504215016 | 12 | 135 | 3.2 | 11.3 | 0.00 | 0.00 | 0.00 | 37 | 1012.4 |
| 20260504214516 | 13 | 113 | 1.6 | 8.0 | 0.00 | 0.00 | 0.00 | 36 | 1012.4 |
| 20260504214017 | 13 | 90 | 1.6 | 6.4 | 0.00 | 0.00 | 0.00 | 35 | 1013.0 |
| 20260504213516 | 13 | 135 | 4.8 | 11.3 | 0.00 | 0.00 | 0.00 | 36 | 1013.1 |
| 20260504213017 | 13 | 90 | 1.6 | 6.4 | 0.00 | 0.00 | 0.00 | 37 | 1013.2 |
| 20260504212517 | 12 | 135 | 3.2 | 8.0 | 0.00 | 0.00 | 0.00 | 39 | 1011.6 |
| 20260504212016 | 12 | 135 | 3.2 | 8.0 | 0.00 | 0.00 | 0.00 | 41 | 1011.7 |
| 20260504211516 | 12 | 135 | 3.2 | 9.7 | 0.00 | 0.00 | 0.00 | 40 | 1011.1 |
| 20260504211017 | 12 | 135 | 6.4 | 11.3 | 0.00 | 0.00 | 0.00 | 40 | 1011.7 |
| 20260504210517 | 12 | 135 | 4.8 | 11.3 | 0.00 | 0.00 | 0.00 | 40 | 1011.2 |
| 20260504210016 | 12 | 135 | 3.2 | 8.0 | 0.00 | 0.00 | 0.00 | 42 | 1011.8 |
| 20260504205517 | 12 | 135 | 6.4 | 12.9 | 0.00 | 0.00 | 0.00 | 42 | 1011.5 |
| 20260504205016 | 12 | 135 | 4.8 | 9.7 | 0.00 | 0.00 | 0.00 | 42 | 1011.4 |
| 20260504204516 | 12 | 135 | 4.8 | 9.7 | 0.00 | 0.00 | 0.00 | 42 | 1011.3 |
| 20260504204016 | 12 | 135 | 4.8 | 14.5 | 0.00 | 0.00 | 0.00 | 42 | 1011.5 |
| 20260504203516 | 12 | 135 | 4.8 | 11.3 | 0.00 | 0.00 | 0.00 | 42 | 1011.6 |
| 20260504203016 | 13 | 90 | 4.8 | 14.5 | 0.00 | 0.00 | 0.00 | 42 | 1011.7 |
| 20260504202516 | 12 | 315 | 1.6 | 12.9 | 0.00 | 0.00 | 0.00 | 46 | 1011.9 |
| 20260504202017 | 12 | 113 | 4.8 | 11.3 | 0.00 | 0.00 | 0.00 | 44 | 1011.9 |
| 20260504201517 | 13 | 90 | 6.4 | 17.7 | 0.00 | 0.00 | 0.00 | 42 | 1012.0 |
| 20260504201016 | 13 | 315 | 1.6 | 8.0 | 0.00 | 0.00 | 0.00 | 44 | 1012.1 |
| 20260504200516 | 12 | 315 | 3.2 | 12.9 | 0.00 | 0.00 | 0.00 | 43 | 1011.9 |
| 20260504200017 | 12 | 315 | 3.2 | 11.3 | 0.00 | 0.00 | 0.00 | 47 | 1012.0 |
| 20260504195516 | 12 | 45 | 3.2 | 11.3 | 0.00 | 0.00 | 0.00 | 45 | 1012.2 |
| 20260504195016 | 12 | 315 | 3.2 | 9.7 | 0.00 | 0.00 | 0.00 | 44 | 1012.1 |
| 20260504194516 | 11 | 23 | 3.2 | 8.0 | 0.00 | 0.00 | 0.00 | 44 | 1012.2 |
| 20260504194016 | 11 | 315 | 4.8 | 11.3 | 0.00 | 0.00 | 0.00 | 43 | 1012.3 |
| 20260504193516 | 12 | 45 | 1.6 | 11.3 | 0.00 | 0.00 | 0.00 | 40 | 1012.1 |
| 20260504193016 | 12 | 0.0 | 3.2 | 0.00 | 0.00 | 0.00 | 41 | 1012.0 | |
| 20260504192516 | 12 | 0.0 | 1.6 | 0.00 | 0.00 | 0.00 | 42 | 1012.1 | |
| 20260504192016 | 12 | 113 | 1.6 | 8.0 | 0.00 | 0.00 | 0.00 | 42 | 1012.0 |
| 20260504191517 | 12 | 90 | 4.8 | 11.3 | 0.00 | 0.00 | 0.00 | 42 | 1011.9 |
| 20260504191016 | 12 | 113 | 3.2 | 9.7 | 0.00 | 0.00 | 0.00 | 42 | 1011.9 |
| 20260504190517 | 12 | 0.0 | 3.2 | 0.00 | 0.00 | 0.00 | 42 | 1011.9 | |
| 20260504190016 | 11 | 113 | 1.6 | 4.8 | 0.00 | 0.00 | 0.00 | 42 | 1011.8 |
| 20260504185517 | 11 | 135 | 3.2 | 8.0 | 0.00 | 0.00 | 0.00 | 40 | 1012.4 |
| 20260504185016 | 11 | 90 | 4.8 | 11.3 | 0.00 | 0.00 | 0.00 | 38 | 1012.4 |
| 20260504184517 | 12 | 90 | 3.2 | 9.7 | 0.00 | 0.00 | 0.00 | 39 | 1012.5 |
| 20260504184016 | 12 | 135 | 3.2 | 11.3 | 0.00 | 0.00 | 0.00 | 38 | 1012.9 |
| 20260504183516 | 13 | 0.0 | 4.8 | 0.00 | 0.00 | 0.00 | 39 | 1012.9 | |
| 20260504183016 | 12 | 135 | 3.2 | 11.3 | 0.00 | 0.00 | 0.00 | 41 | 1013.1 |
| 20260504182516 | 12 | 315 | 4.8 | 11.3 | 0.00 | 0.00 | 0.00 | 43 | 1012.5 |
| 20260504182016 | 12 | 0.0 | 6.4 | 0.00 | 0.00 | 0.00 | 43 | 1012.6 | |
| 20260504181516 | 12 | 0.0 | 3.2 | 0.00 | 0.00 | 0.00 | 44 | 1013.2 | |
| 20260504181016 | 13 | 0.0 | 1.6 | 0.00 | 0.00 | 0.00 | 44 | 1013.2 | |
| 20260504180516 | 13 | 0.0 | 3.2 | 0.00 | 0.00 | 0.00 | 36 | 1013.0 | |
| 20260504180016 | 13 | 158 | 1.6 | 4.8 | 0.00 | 0.00 | 0.00 | 32 | 1013.0 |
| 20260504175516 | 13 | 0.0 | 3.2 | 0.00 | 0.00 | 0.00 | 29 | 1014.0 | |
| 20260504175016 | 14 | 0.0 | 3.2 | 0.00 | 0.00 | 0.00 | 27 | 1013.9 | |
| 20260504174516 | 14 | 0.0 | 1.6 | 0.00 | 0.00 | 0.00 | 28 | 1014.0 | |
| 20260504174016 | 15 | 0.0 | 4.8 | 0.00 | 0.00 | 0.00 | 25 | 1014.5 | |
| 20260504173516 | 16 | 0.0 | 3.2 | 0.00 | 0.00 | 0.00 | 27 | 1014.7 | |
| 20260504173016 | 15 | 0.0 | 3.2 | 0.00 | 0.00 | 0.00 | 27 | 1014.7 | |
| 20260504172516 | 16 | 0.0 | 3.2 | 0.00 | 0.00 | 0.00 | 28 | 1014.9 | |
| 20260504172016 | 16 | 338 | 1.6 | 8.0 | 0.00 | 0.00 | 0.00 | 26 | 1014.7 |
| 20260504171516 | 16 | 23 | 3.2 | 8.0 | 0.00 | 0.00 | 0.00 | 28 | 1015.5 |
| 20260504171016 | 16 | 158 | 3.2 | 11.3 | 0.00 | 0.00 | 0.00 | 29 | 1015.6 |
| 20260504170516 | 16 | 248 | 1.6 | 8.0 | 0.00 | 0.00 | 0.00 | 28 | 1015.1 |
| 20260504151016 | 11 | 135 | 3.2 | 9.7 | 0.00 | 0.00 | 0.00 | 36 | 1015.0 |
| 20260504150516 | 11 | 158 | 1.6 | 11.3 | 0.00 | 0.00 | 0.00 | 37 | 1015.1 |
| 20260504141016 | 10 | 0.0 | 0.0 | 0.00 | 0.00 | 0.00 | 37 | 1016.3 | |
| 20260504140516 | 10 | 0.0 | 0.0 | 0.00 | 0.00 | 0.00 | 39 | 1016.4 | |
| 20260504130516 | 8 | 0.0 | 0.0 | 0.00 | 0.00 | 0.00 | 34 | 1016.3 | |
| 20260504110515 | 7 | 0.0 | 1.6 | 0.00 | 0.00 | 0.00 | 35 | 1016.9 | |
| 20260504100516 | 7 | 0.0 | 1.6 | 0.00 | 0.00 | 0.00 | 35 | 1017.0 | |
| 20260504081518 | 3 | 0.0 | 0.0 | 0.00 | 0.00 | 0.00 | 44 | 1017.9 | |
| 20260504081017 | 3 | 0.0 | 0.0 | 0.00 | 0.00 | 0.00 | 44 | 1017.8 | |
| 20260504080517 | 3 | 0.0 | 0.0 | 0.00 | 0.00 | 0.00 | 44 | 1017.9 | |
| 20260504050517 | 6 | 0.0 | 1.6 | 0.00 | 0.00 | 0.00 | 43 | 1017.3 | |
| 20260504050017 | 6 | 0.0 | 0.0 | 0.00 | 0.00 | 0.00 | 45 | 1017.4 | |
| 20260504045517 | 6 | 0.0 | 0.0 | 0.00 | 0.00 | 0.00 | 45 | 1017.4 | |
| 20260504045017 | 6 | 0.0 | 0.0 | 0.00 | 0.00 | 0.00 | 44 | 1017.5 | |
| 20260504044517 | 6 | 0.0 | 0.0 | 0.00 | 0.00 | 0.00 | 46 | 1017.5 | |
| 20260504044017 | 6 | 0.0 | 0.0 | 0.00 | 0.00 | 0.00 | 45 | 1017.5 | |
| 20260504043517 | 6 | 0.0 | 0.0 | 0.00 | 0.00 | 0.00 | 46 | 1017.7 | |
| 20260504043017 | 6 | 0.0 | 0.0 | 0.00 | 0.00 | 0.00 | 46 | 1017.7 | |
| 20260504042517 | 6 | 0.0 | 0.0 | 0.00 | 0.00 | 0.00 | 47 | 1017.2 | |
| 20260504042017 | 6 | 0.0 | 0.0 | 0.00 | 0.00 | 0.00 | 47 | 1017.2 | |
| 20260504041517 | 6 | 0.0 | 0.0 | 0.00 | 0.00 | 0.00 | 47 | 1017.3 | |
| 20260504041017 | 6 | 0.0 | 0.0 | 0.00 | 0.00 | 0.00 | 48 | 1017.3 |